Jamestown, NY

4:58 AM EST on January 21, 2018 (GMT -0500)
Chautauqua County-Jamestown

Weather History for KJHW - April, 2014

Change the Weather History Date:

Tuesday, April 1, 2014

  Actual Average Record
Temperature  
Mean Temperature 50 °F -  
Max Temperature 66 °F 51 °F 72 °F (1986)
Min Temperature 35 °F 29 °F 14 °F (1987)
Degree Days  
Heating Degree Days 14    
Moisture  
Dew Point 29 °F    
Average Humidity 53    
Maximum Humidity 65    
Minimum Humidity 32    
Precipitation  
Precipitation 0.00 in - - ()
Sea Level Pressure  
Sea Level Pressure 29.96 in    
Wind  
Wind Speed 10 mph (South)    
Max Wind Speed 22 mph    
Max Gust Speed 32 mph    
Visibility 10 miles    
Events      
Averages and records for this station are not official NWS values.
T = Trace of Precipitation, MM = Missing Value Source: NWS Daily Summary

Daily Weather History Graph

Daily Weather History Graph

Search for Another Location

Airport or City:

Trip Planner

Search our weather history database for the weather conditions in past years. The results will help you decide how hot, cold, wet, or windy it might be!

Date:

Astronomy

Apr. 01, 2014 Rise Set
Actual Time 6:59 AM EDT 7:42 PM EDT
Civil Twilight 6:31 AM EDT 8:11 PM EDT
Nautical Twilight 5:58 AM EDT 8:44 PM EDT
Astronomical Twilight 5:23 AM EDT 9:19 PM EDT
Moon 7:59 AM EDT (4/1) 10:06 PM EDT (4/1)
Length of Visible Light 13h 39m
Length of Day
12h 43m
Waxing Crescent, 4% of the Moon is Illuminated
Apr 1
Waxing Crescent
Apr 7
First Quarter
Apr 15
Full
Apr 22
Last Quarter
Apr 29
New

Hourly Weather History & Observations

Time (EDT) Temp. Windchill Dew Point Humidity Pressure Visibility Wind Dir Wind Speed Gust Speed Precip Events Conditions
12:15 AM 39.2 °F 33.6 °F 24.8 °F 56% 30.12 in 10.0 mi ENE 8.1 mph - N/A   Clear
12:35 AM 39.2 °F 37.0 °F 24.8 °F 56% 30.11 in 10.0 mi East 3.5 mph - N/A   Clear
12:55 AM 39.2 °F 35.0 °F 24.8 °F 56% 30.12 in 10.0 mi East 5.8 mph - N/A   Clear
1:15 AM 39.2 °F 34.2 °F 24.8 °F 56% 30.12 in 10.0 mi East 6.9 mph - N/A   Clear
1:35 AM 37.4 °F 33.8 °F 24.8 °F 60% 30.11 in 10.0 mi East 4.6 mph - N/A   Clear
1:55 AM 37.4 °F 32.8 °F 24.8 °F 60% 30.10 in 10.0 mi East 5.8 mph - N/A   Clear
2:15 AM 37.4 °F 32.1 °F 24.8 °F 60% 30.09 in 10.0 mi East 6.9 mph - N/A   Clear
2:35 AM 37.4 °F 33.8 °F 24.8 °F 60% 30.09 in 10.0 mi East 4.6 mph - N/A   Clear
2:55 AM 37.4 °F 32.1 °F 23.0 °F 56% 30.08 in 10.0 mi East 6.9 mph - N/A   Clear
3:15 AM 37.4 °F 30.8 °F 23.0 °F 56% 30.08 in 10.0 mi ESE 9.2 mph - N/A   Clear
3:35 AM 37.4 °F 30.8 °F 24.8 °F 60% 30.07 in 10.0 mi SE 9.2 mph - N/A   Clear
3:55 AM 37.4 °F 31.4 °F 24.8 °F 60% 30.07 in 10.0 mi SE 8.1 mph - N/A   Clear
4:15 AM 37.4 °F 30.3 °F 24.8 °F 60% 30.06 in 10.0 mi SE 10.4 mph - N/A   Clear
4:35 AM 37.4 °F 29.8 °F 24.8 °F 60% 30.06 in 10.0 mi SE 11.5 mph - N/A   Clear
4:55 AM 35.6 °F 30.7 °F 24.8 °F 65% 30.07 in 10.0 mi South 5.8 mph - N/A   Clear
5:15 AM 35.6 °F 30.7 °F 24.8 °F 65% 30.07 in 10.0 mi SSE 5.8 mph - N/A   Clear
5:35 AM 35.6 °F 29.2 °F 23.0 °F 60% 30.06 in 10.0 mi SSE 8.1 mph - N/A   Clear
5:55 AM 35.6 °F 28.6 °F 24.8 °F 65% 30.06 in 10.0 mi SE 9.2 mph - N/A   Clear
6:15 AM 35.6 °F 28.6 °F 24.8 °F 65% 30.06 in 10.0 mi SE 9.2 mph - N/A   Clear
6:35 AM 35.6 °F 28.6 °F 24.8 °F 65% 30.05 in 10.0 mi SSE 9.2 mph - N/A   Clear
6:55 AM 35.6 °F 28.6 °F 23.0 °F 60% 30.05 in 10.0 mi SE 9.2 mph - N/A   Clear
7:15 AM 35.6 °F 28.6 °F 24.8 °F 65% 30.05 in 10.0 mi SE 9.2 mph - N/A   Clear
7:35 AM 35.6 °F 28.6 °F 24.8 °F 65% 30.05 in 10.0 mi South 9.2 mph - N/A   Clear
7:55 AM 35.6 °F 29.9 °F 24.8 °F 65% 30.05 in 10.0 mi South 6.9 mph - N/A   Clear
8:15 AM 35.6 °F 28.6 °F 24.8 °F 65% 30.03 in 10.0 mi SSE 9.2 mph - N/A   Clear
8:35 AM 37.4 °F 29.8 °F 24.8 °F 60% 30.04 in 10.0 mi South 11.5 mph - N/A   Clear
8:55 AM 37.4 °F 30.3 °F 24.8 °F 60% 30.04 in 10.0 mi South 10.4 mph - N/A   Clear
9:15 AM 39.2 °F 31.6 °F 24.8 °F 56% 30.03 in 10.0 mi South 12.7 mph - N/A   Clear
9:35 AM 39.2 °F 31.6 °F 24.8 °F 56% 30.01 in 10.0 mi SSE 12.7 mph 16.1 mph N/A   Clear
9:55 AM 39.2 °F 31.6 °F 24.8 °F 56% 30.01 in 10.0 mi SSE 12.7 mph 18.4 mph N/A   Clear
10:15 AM 41.0 °F 34.3 °F 24.8 °F 53% 30.01 in 10.0 mi South 11.5 mph - N/A   Partly Cloudy
10:35 AM 44.6 °F 38.4 °F 26.6 °F 49% 30.00 in 10.0 mi South 12.7 mph 16.1 mph N/A   Clear
10:55 AM 46.4 °F 40.7 °F 26.6 °F 46% 30.00 in 10.0 mi South 12.7 mph 23.0 mph N/A   Clear
11:15 AM 48.2 °F - 28.4 °F 46% 29.98 in 10.0 mi South 12.7 mph 17.3 mph N/A   Partly Cloudy
11:35 AM 48.2 °F - 26.6 °F 43% 29.97 in 10.0 mi South 12.7 mph 20.7 mph N/A   Mostly Cloudy
11:55 AM 48.2 °F - 26.6 °F 43% 29.95 in 10.0 mi SSE 11.5 mph - N/A   Overcast
12:15 PM 48.2 °F - 26.6 °F 43% 29.94 in 10.0 mi SSE 12.7 mph 17.3 mph N/A   Overcast
12:35 PM 48.2 °F - 26.6 °F 43% 29.93 in 10.0 mi SSE 11.5 mph - N/A   Overcast
12:55 PM 48.2 °F - 28.4 °F 46% 29.91 in 10.0 mi SSE 9.2 mph - N/A   Overcast
1:15 PM 51.8 °F - 28.4 °F 41% 29.90 in 10.0 mi SSE 12.7 mph 17.3 mph N/A   Mostly Cloudy
1:35 PM 51.8 °F - 28.4 °F 41% 29.90 in 10.0 mi South 10.4 mph 18.4 mph N/A   Mostly Cloudy
1:55 PM 53.6 °F - 30.2 °F 41% 29.88 in 10.0 mi South 9.2 mph - N/A   Partly Cloudy
2:15 PM 55.4 °F - 30.2 °F 38% 29.87 in 10.0 mi South 10.4 mph - N/A   Mostly Cloudy
2:35 PM 57.2 °F - 33.8 °F 41% 29.86 in 10.0 mi South 13.8 mph - N/A   Mostly Cloudy
2:55 PM 60.8 °F - 35.6 °F 39% 29.83 in 10.0 mi South 11.5 mph 18.4 mph N/A   Partly Cloudy
3:15 PM 62.6 °F - 35.6 °F 37% 29.82 in 10.0 mi SSE 10.4 mph 17.3 mph N/A   Clear
3:35 PM 62.6 °F - 35.6 °F 37% 29.80 in 10.0 mi South 17.3 mph 27.6 mph N/A   Clear
3:55 PM 64.4 °F - 35.6 °F 34% 29.80 in 10.0 mi South 11.5 mph 21.9 mph N/A   Clear
4:15 PM 64.4 °F - 35.6 °F 34% 29.80 in 10.0 mi SSW 13.8 mph 24.2 mph N/A   Clear
4:35 PM 64.4 °F - 35.6 °F 34% 29.80 in 10.0 mi SSW 16.1 mph 29.9 mph N/A   Clear
4:55 PM 66.2 °F - 35.6 °F 32% 29.79 in 10.0 mi SW 15.0 mph 21.9 mph N/A   Mostly Cloudy
5:15 PM 66.2 °F - 35.6 °F 32% 29.78 in 10.0 mi SW 19.6 mph 26.5 mph N/A   Mostly Cloudy
5:35 PM 66.2 °F - 35.6 °F 32% 29.78 in 10.0 mi SSW 12.7 mph 20.7 mph N/A   Mostly Cloudy
5:55 PM 62.6 °F - 37.4 °F 39% 29.81 in 10.0 mi WNW 21.9 mph 32.2 mph N/A   Mostly Cloudy
6:15 PM 55.4 °F - 39.2 °F 54% 29.83 in 10.0 mi WNW 19.6 mph 25.3 mph N/A   Partly Cloudy
6:35 PM 53.6 °F - 37.4 °F 54% 29.84 in 10.0 mi West 15.0 mph 19.6 mph N/A   Clear
6:55 PM 53.6 °F - 35.6 °F 51% 29.85 in 10.0 mi West 16.1 mph - N/A   Clear
7:15 PM 51.8 °F - 35.6 °F 54% 29.85 in 10.0 mi WNW 17.3 mph 23.0 mph N/A   Clear
7:35 PM 51.8 °F - 33.8 °F 50% 29.86 in 10.0 mi West 16.1 mph 19.6 mph N/A   Clear
7:55 PM 50.0 °F - 33.8 °F 54% 29.87 in 10.0 mi West 18.4 mph 24.2 mph N/A   Clear
8:15 PM 48.2 °F - 33.8 °F 58% 29.89 in 10.0 mi West 17.3 mph 21.9 mph N/A   Clear
8:35 PM 48.2 °F - 32.0 °F 54% 29.90 in 10.0 mi West 13.8 mph 21.9 mph N/A   Clear
8:55 PM 48.2 °F - 30.2 °F 50% 29.92 in 10.0 mi West 11.5 mph - N/A   Clear
9:15 PM 46.4 °F 40.7 °F 30.2 °F 53% 29.93 in 10.0 mi WSW 12.7 mph 20.7 mph N/A   Clear
9:35 PM 44.6 °F 36.9 °F 30.2 °F 57% 29.94 in 10.0 mi WSW 18.4 mph 24.2 mph N/A   Clear
9:55 PM 44.6 °F 38.1 °F 30.2 °F 57% 29.94 in 10.0 mi WSW 13.8 mph - N/A   Clear
10:15 PM 42.8 °F 35.4 °F 30.2 °F 61% 29.95 in 10.0 mi WSW 15.0 mph 20.7 mph N/A   Clear
10:35 PM 42.8 °F 35.4 °F 30.2 °F 61% 29.95 in 10.0 mi WSW 15.0 mph - N/A   Clear
10:55 PM 42.8 °F 34.5 °F 30.2 °F 61% 29.95 in 10.0 mi WSW 18.4 mph - N/A   Clear
11:15 PM 42.8 °F 35.1 °F 30.2 °F 61% 29.95 in 10.0 mi WSW 16.1 mph 21.9 mph N/A   Clear
11:35 PM 41.0 °F 32.5 °F 30.2 °F 65% 29.96 in 10.0 mi WSW 17.3 mph - N/A   Clear
11:55 PM 41.0 °F 33.9 °F 30.2 °F 65% 29.96 in 10.0 mi WSW 12.7 mph 20.7 mph N/A   Clear